TYVAK-0092 (44852 NORAD) Tracking and Keplerian Element Data

This shows tracking and keplerian element data for the satellite.

Feedback or suggestion? Click here.




ElementValue
Catalog44852
NameTYVAK-0092
Epoch Orbit636
Epoch Day23.00446772
Epoch Year2020
RAAN243.5795
Inclination36.9679
Eccentricity0.0008021
Argument of Perigee332.9636
Mean Anonmoly27.0674
Mean Motion14.99440412
Decay Rate5.12E-06
L11 44852U 19089A 20023.00446772 .00000512 00000-0 47331-4 0 9997
L22 44852 36.9679 243.5795 0008021 332.9636 27.0674 14.99440412 6362

Live tracking and technical data element details for TYVAK-0092 (NORAD 44852). TYVAK-0092 can be tracked NOW for your location showing map with azimuth and elevation plus other details from your city location.

Track the satellite on the map from your city or location and see movement details for azimuth, elevation, latitude, longitude, range, height, and movement on the map or in text.







IsCatalogInMostPopularTable: catalog: 44852, numindb: 8
Update: records affected: 1



GetName: 44852 TYVAK-0092

Hit Count: updated at: Fri, 24 Jan 2020 11:21:30 GMT